Tracking 19245 objects as of 21-Aug-2018
HD Live streaming from Space Station
objects crossing your sky now

COSMOS 648

Track COSMOS 648 now!
10-day predictions
COSMOS 648 is classified as:


NORAD ID: 7272
Int'l Code: 1974-024H
Perigee: 1,444.0 km
Apogee: 1,496.5 km
Inclination: 74.0 °
Period: 115.2 minutes
Semi major axis: 7841 km
RCS: 0.7136 m2 (medium)
Launch date: April 23, 1974
Source: Commonwealth of Independent States (former USSR) (CIS)
Launch site: PLESETSK MISSILE AND SPACE COMPLEX (PKMTR)
aabbcc
Your satellite tracking list
Your tracking list is empty




NASA's NSSDC Master Catalog

Two Line Element Set (TLE):
1  7272U 74024H   18232.52733053 -.00000013 +00000-0 +19965-4 0  9998
2  7272 074.0177 134.6312 0033535 300.5856 110.9046 12.50331122023211
Source of the keplerian elements: AFSPC